Moosonee Airport
CYMO : now visible

Airfield :











YOU CAN JOIN US ON...

 
LOGIN :

Register | Disclaimer

   EN    FR    IT 

 









Legend :    VFR   Marginal VFR   IFR   Intensive IFR   Very Intensive IFR
Visi :
Ceiling :
>= 8 km
>= 3000ft
5 to 8 km
1000 to 3000 ft
1500m to 5 km
500 to 1000 ft
800 to 1500m
200 to 500 ft
< 800m
< 200 ft
Symbols :   Thunderstorms  Fog  Heavy snow  Heavy precipitations  Wind > 20 kt






- Airport Elevation : 30 ft
- IATA code : YMO


CYMO - Moosonee

CURRENT METAR :
  • 011400Z AUTO 28002KT 9SM CLR M34/M37 A3011 RMK SLP198

EXPIRED METARs :
  • 011300Z AUTO 00000KT 9SM CLR M37/M41 A3011 RMK SLP199
  • 011200Z AUTO 00000KT 9SM CLR M36/M40 A3011 RMK SLP199

TAF TAF CYMO
Valid from the 01 at 12:00 until the 02 at 00:00 UTC


011140Z 0112/0124 VRB03KT P6SM SKC
BECMG 0121/0123 23008KT RMK FCST BASED ON AUTO OBS. NXT FCST BY 011800Z
CZYZ FIR / North America



MET'MAP, your aeronautical weather chart ! - Copyright ORBIFLY December 2007 - Disclaimer

ORBIFLY MET'MAP TEAM :

Programming & Development : Alexandra Zaïnal
Original concept : Baudouin d'Aumeries
Technical & hardware support : Manuel Goepfert
Assistance : Marc-Olivier Méhu




SOURCES & CREDITS :

   NOAA       Earth
Advisory